Simultaneous Nadir Overpasses (SNOs) Predictions

Prediction of SNOs between GOES-17 and LANDSAT-8 Satellite Orbit:

Table of predicted SNOs for the next 14.0 days since TLE Epoch: 6/14/2024
Index Date Time (GOES-17) GOES-17 Lat,Lon LANDSAT-8 Lat,Lon Distance(km) Time Diff (sec)
1 06/15/2024 05:06:11 0.02,-104.70 0.19,-104.05 75.13 80
2 06/17/2024 04:54:02 0.02,-104.70 0.82,-101.09 410.84 80
3 06/17/2024 17:15:18 -0.02,-104.72 0.29,-106.25 174.18 80
4 06/19/2024 17:05:48 0.01,-104.71 -0.30,-103.29 162.22 80
5 06/20/2024 05:27:12 -0.01,-104.70 -0.84,-108.47 429.60 80
6 06/21/2024 16:53:38 0.01,-104.71 -0.91,-100.33 497.22 80
7 06/22/2024 05:15:03 -0.00,-104.69 -0.16,-105.53 94.72 80
8 06/24/2024 05:00:13 0.02,-104.68 0.47,-102.57 239.93 80
9 06/24/2024 17:21:29 -0.02,-104.69 0.62,-107.73 345.46 80
10 06/26/2024 17:09:19 -0.03,-104.69 -0.04,-104.78 10.61 80
11 06/28/2024 16:59:48 -0.04,-104.68 -0.65,-101.82 325.43 80
